GW6296 Weather Reports


Display with metric or nautical units.
time (UTC)temp
F
wind
direction
speed
MPH
gust
MPH
rain 1hr
in
rain 24hr
in
rain mn
in
humidity
%
barometer
mb
20260906230054 64 32 5.0 8.0 0.00 0.18 0.11 76 1015.7
20260906224554 63 321 3.0 8.0 0.00 0.18 0.11 78 1015.8
20260906223101 62 326 3.0 7.0 0.00 0.18 0.11 80 1016.0
20260906221548 62 278 2.0 7.0 0.00 0.18 0.11 79 1016.0
20260906220045 61 281 4.0 7.0 0.00 0.18 0.11 81 1016.1
20260906214545 62 255 5.0 8.0 0.00 0.18 0.11 81 1016.0
20260906213042 62 282 4.0 7.0 0.00 0.18 0.11 78 1016.0
20260906211546 62 215 1.0 3.0 0.00 0.18 0.11 77 1015.8
20260906210043 62 23 1.0 4.0 0.00 0.18 0.11 77 1015.9
20260906204534 61 343 3.0 7.0 0.00 0.18 0.11 80 1016.0
20260906203036 62 349 1.0 5.0 0.00 0.18 0.11 79 1016.1
20260906201540 62 244 3.0 5.0 0.00 0.18 0.11 78 1016.1
20260906200027 62 254 4.0 6.0 0.00 0.18 0.11 77 1016.1
20260906194525 62 266 4.0 8.0 0.00 0.18 0.11 78 1016.1
20260906193022 63 276 6.0 9.0 0.00 0.18 0.11 78 1016.1
20260906191520 64 212 0.0 4.0 0.00 0.18 0.11 72 1016.1
20260906190017 64 56 2.0 8.0 0.00 0.18 0.11 73 1016.1
20260906184515 64 89 6.0 14.0 0.00 0.18 0.11 75 1016.0
20260906183009 63 62 6.0 12.0 0.00 0.18 0.11 80 1015.8
20260906181514 61 72 8.0 13.0 0.00 0.18 0.11 83 1016.0
20260906180121 59 54 9.0 15.0 0.00 0.18 0.11 87 1016.3
20260906174617 57 26 10.0 14.0 0.01 0.18 0.11 88 1016.7
20260906173054 56 29 12.0 18.0 0.01 0.18 0.11 91 1016.9
20260906171610 54 73 15.0 21.0 0.01 0.18 0.11 91 1016.6
20260906170058 54 4 12.0 17.0 0.00 0.17 0.10 90 1017.9
20260906164546 55 312 8.0 11.0 0.00 0.17 0.10 90 1018.1
20260906163044 56 340 1.0 6.0 0.00 0.17 0.10 91 1017.7
20260906161609 55 45 8.0 16.0 0.00 0.17 0.10 92 1017.4
20260906160040 54 31 12.0 18.0 0.00 0.17 0.10 91 1017.4
20260906154544 54 18 11.0 16.0 0.01 0.17 0.10 91 1017.9
20260906153047 53 325 7.0 12.0 0.03 0.17 0.10 92 1018.2
20260906151534 53 333 8.0 15.0 0.07 0.17 0.10 93 1018.3
20260906150036 52 318 11.0 18.0 0.10 0.17 0.10 93 1018.2
20260906144532 52 315 13.0 20.0 0.09 0.17 0.09 93 1018.6
20260906143026 52 310 13.0 18.0 0.07 0.15 0.07 93 1018.8
20260906141520 54 285 16.0 20.0 0.03 0.11 0.03 90 1019.0
20260906140017 56 243 9.0 15.0 0.00 0.08 0.00 84 1018.6
20260906134516 59 69 6.0 10.0 0.00 0.13 0.00 83 1017.8
20260906133013 59 90 8.0 12.0 0.00 0.13 0.00 80 1017.9
20260906131511 59 84 7.0 14.0 0.00 0.13 0.00 80 1017.7
20260906130013 58 70 8.0 15.0 0.00 0.13 0.00 81 1017.7
20260906124506 56 333 5.0 8.0 0.00 0.14 0.00 85 1018.2
20260906123013 59 316 6.0 20.0 0.00 0.14 0.00 78 1018.2
20260906121614 59 64 11.0 26.0 0.00 0.14 0.00 79 1017.9
20260906120104 55 317 9.0 15.0 0.00 0.14 0.00 86 1018.5
20260906114554 57 53 11.0 14.0 0.00 0.14 0.00 85 1017.7
20260906113048 56 65 4.0 7.0 0.00 0.14 0.00 82 1018.4
20260906111549 55 79 4.0 8.0 0.00 0.14 0.00 82 1018.2
20260906110043 55 84 1.0 3.0 0.00 0.14 0.00 83 1018.1
20260906104541 55 62 1.0 3.0 0.00 0.14 0.00 85 1018.0
20260906103045 56 5 4.0 6.0 0.00 0.14 0.00 86 1018.2
20260906101538 56 27 3.0 8.0 0.00 0.14 0.00 87 1018.2
20260906100036 55 341 3.0 7.0 0.00 0.14 0.00 89 1018.3
20260906094530 55 25 5.0 13.0 0.00 0.14 0.00 89 1018.3
20260906093029 55 7 10.0 18.0 0.00 0.14 0.00 88 1018.5
20260906091527 55 48 12.0 19.0 0.00 0.14 0.00 89 1018.7
20260906090026 55 326 6.0 15.0 0.00 0.14 0.00 90 1019.3
20260906084522 55 1 15.0 20.0 0.00 0.14 0.00 89 1019.4
20260906083019 55 326 11.0 23.0 0.00 0.14 0.00 89 1019.8
20260906081521 54 290 8.0 21.0 0.00 0.14 0.00 92 1019.8
20260906080016 54 41 16.0 0.0 0.00 0.00 0.00 91 1018.5
20260906074507 55 331 10.0 15.0 0.00 0.14 0.00 90 1018.9
20260906073006 55 352 12.0 20.0 0.00 0.14 0.00 89 1018.7
20260906071502 55 39 16.0 22.0 0.00 0.14 0.00 89 1018.7
20260906070058 55 13 16.0 21.0 0.00 0.14 0.00 89 1019.2
20260906064556 55 20 13.0 20.0 0.00 0.14 0.00 89 1019.5
20260906063052 55 360 16.0 22.0 0.00 0.14 0.00 89 1019.5
20260906061550 55 342 16.0 21.0 0.00 0.14 0.00 89 1020.0
20260906060054 55 354 12.0 17.0 0.00 0.14 0.00 88 1019.9
20260906054545 55 345 13.0 18.0 0.01 0.14 0.14 88 1019.4
20260906053040 55 1 16.0 22.0 0.01 0.14 0.14 88 1019.4
20260906051538 55 12 14.0 19.0 0.01 0.14 0.14 87 1019.6
20260906050034 55 8 13.0 20.0 0.01 0.14 0.14 88 1019.5
20260906044533 56 349 6.0 11.0 0.00 0.13 0.13 86 1020.2
20260906043034 55 21 12.0 18.0 0.03 0.13 0.13 86 1018.9
20260906041530 55 350 15.0 19.0 0.06 0.13 0.13 87 1018.5
20260906040026 55 333 11.0 17.0 0.06 0.13 0.13 88 1019.0
20260906034541 55 358 11.0 22.0 0.06 0.13 0.13 88 1019.5
20260906033022 57 354 11.0 15.0 0.03 0.10 0.10 82 1020.6
20260906031525 59 351 8.0 20.0 0.00 0.07 0.07 74 1019.8
20260906030012 60 337 13.0 20.0 0.00 0.07 0.07 71 1018.4
20260906024510 60 25 13.0 20.0 0.00 0.07 0.07 70 1017.9
20260906023007 60 25 14.0 19.0 0.00 0.07 0.07 70 1017.5
20260906021505 60 12 15.0 21.0 0.00 0.07 0.07 69 1017.7
20260906020004 61 30 13.0 18.0 0.00 0.07 0.07 68 1017.7
20260906014503 62 34 12.0 16.0 0.00 0.07 0.07 67 1017.9
20260906013202 62 352 12.0 17.0 0.00 0.07 0.07 67 1018.0
20260906011559 62 36 12.0 19.0 0.00 0.07 0.07 66 1017.7
20260906010136 63 332 12.0 18.0 0.00 0.07 0.07 66 1017.9
20260906004611 63 3 15.0 20.0 0.00 0.07 0.07 65 1017.9
20260906003052 65 340 14.0 21.0 0.00 0.07 0.07 62 1018.2
20260906001601 67 38 12.0 19.0 0.00 0.07 0.07 59 1018.3
20260906000047 67 25 11.0 17.0 0.00 0.07 0.07 58 1018.3
20260905234545 68 329 8.0 14.0 0.00 0.07 0.07 55 1018.6
20260905233043 69 23 10.0 17.0 0.00 0.07 0.07 55 1018.6
20260905231541 69 329 11.0 15.0 0.00 0.07 0.07 55 1018.5